Regional Weather Roundup
Issued by NWS Kansas City/Pleasant Hill, MO

Home | Current Version | Previous Version | Graphics & Text | Print | Product List | Glossary Off
Versions: 1 2 3 4 5 6 7 8 9 10 11 12 13 14 15 16 17 18 19 20 21 22 23 24 25 26 27 28 29 30 31 32 33 34 35 36 37 38 39 40 41 42 43 44 45 46 47 48 49 50

000
ASUS43 KEAX 231010
RWREAX

WEATHER ROUNDUP FOR EASTERN KANSAS AND NORTHWEST MISSOURI
NATIONAL WEATHER SERVICE KANSAS CITY/PLEASANT HILL MO
400 AM CST MON JAN 23 2017

KSZ040-057-103>105-MOZ028-029-037-043-231100-
...KANSAS CITY METROPOLITAN AREA...

CITY           SKY/WX    TMP DP  RH WIND       PRES   REMARKS
K.C. INTL      PTCLDY    29  26  89 W7        29.89S FOG     WCI  22
K.C. DOWNTOWN  CLEAR     33  30  88 W5        29.90S WCI  29
LEES SUMMIT    CLEAR     32  30  92 W5        29.89S WCI  27
OLATHE - IXD   CLEAR     30  29  96 W7        29.91S WCI  23
OLATHE - OJC   CLEAR     30  30 100 NW5       29.89F WCI  25
LAWRENCE       PTCLDY    25  25 100 W6        29.93S FOG     WCI  18

$$

MOZ001>008-011>017-020>025-030>033-038>040-044>046-053-054-231100-
...NORTHERN AND CENTRAL MISSOURI...

CITY           SKY/WX    TMP DP  RH WIND       PRES   REMARKS
ST. JOSEPH     CLOUDY    31  31 100 NW5       29.91S FOG     WCI  26
MOSBY          CLOUDY    32  32 100 NW9       29.89S FOG     WCI  24
WARRENSBURG    CLEAR     34  32  93 W5        29.87F FOG     WCI  30
WHITEMAN AFB   CLOUDY    37  37 100 NW8       29.86S WCI  31
CLINTON        PTCLDY    36  32  87 W5        29.89S FOG     WCI  32
SEDALIA        CLOUDY    39  36  89 NW9       29.87S WCI  33
WARSAW         NOT AVBL
CHILLICOTHE      N/A     37  34  89 NW8       29.87F WCI  31
KIRKSVILLE     CLOUDY    38  36  92 NW8       29.82F WCI  32

$$

MOZ041-047>049-056>058-063>065-088>090-097-231100-
...EASTERN AND SOUTHERN MISSOURI...

CITY           SKY/WX    TMP DP  RH WIND       PRES   REMARKS
ST. LOUIS INTL CLOUDY    41  35  79 NW13      29.77R WCI  34
SPIRIT OF STL  CLOUDY    41  37  86 NW13      29.78R WCI  34
COLUMBIA       CLOUDY    39  36  89 NW13      29.81F WCI  31
JEFFERSON CITY CLOUDY    40  36  86 NW9       29.83R WCI  34
ROLLA          CLOUDY    38  37  97 NW10      29.78F WCI  31
OSAGE BEACH    CLOUDY    39  36  89 NW5       29.85R
SPRINGFIELD    CLOUDY    38  35  89 NW10      29.85F WCI  31
BRANSON        CLOUDY    37  36  93 NW6       29.85F WCI  33
JOPLIN         CLOUDY    37  35  92 NW8       29.90F WCI  31
WEST PLAINS    CLOUDY    40  34  79 N18G24    29.80R WCI  31

$$

IAZ060-094-KSZ022-034>040-054-083-096-NEZ052-066-093-231100-
...KANSAS...SOUTHEAST NEBRASKA AND IOWA...

CITY           SKY/WX    TMP DP  RH WIND       PRES   REMARKS
TOPEKA         CLEAR     28  25  88 CALM      29.92F
MANHATTAN      CLEAR     23  21  92 CALM      29.92F
EMPORIA        CLEAR     27  25  92 W6        29.91F WCI  20
CHANUTE        CLEAR     30  28  92 NW7       29.92F WCI  23
WICHITA        CLEAR     28  26  92 SE5       29.92F WCI  23
OMAHA          CLOUDY    32  27  81 NW8       29.92R WCI  25
LINCOLN        CLOUDY    27  26  96 N5        29.94S WCI  22
FALLS CITY     MOCLDY    25  24  96 N3        29.91S
LAMONI         CLOUDY    31  29  92 NW12      29.85F WCI  22
DES MOINES     CLOUDY    32  29  88 NW10      29.86F WCI  24

$$




USA.gov is the U.S. government's official web portal to all federal, state and local government web resources and services.